Hourly Data Report for October 01, 2017

All times are specified in Local Standard Time (LST). Add 1 hour to adjust for Daylight Saving Time where and when it is observed.

GREENWOOD A
NOVA SCOTIA

44°59'00.000" N
64°55'00.000" W
28.00 m
8202000
71397
YZX

Download Data

Hourly Data (October 2017)
Hourly Data Report for October 1, 2017
Temp Definition
°C
Dew Point Temp Definition
°C
Rel Hum Definition
%
Wind Dir Definition
10's deg

Wind Spd Definition
km/h
Visibility Definition
km
Stn Press Definition
kPa
Hmdx Definition


Wind Chill Definition


Weather Definition


TIME
00:00 3.5 2.4 92   0 24.1 102.21     Clear
01:00 2.2 1.3 94 28 4 24.1 102.21     Clear
02:00 2.3 1.6 95 20 4 24.1 102.21     Clear
03:00 1.7 1.0 95   0 24.1 102.19     Clear
04:00 1.1 0.4 95 25 4 24.1 102.16     Clear
05:00 0.8 0.3 96 19 6 24.1 102.14     Clear
06:00 0.4 -0.1 96 25 4 24.1 102.12     Clear
07:00 0.8 -0.2 93 27 4 24.1 102.15     Mainly Clear
08:00 2.9 1.8 92 26 7 24.1 102.16     Mainly Clear
09:00 7.2 4.1 81 22 6 24.1 102.12     Clear
10:00 11.8 6.0 68 25 17 24.1 102.07     Clear
11:00 13.7 5.4 57 22 24 24.1 102.02     Clear
12:00 14.4 4.5 51 25 30 24.1 101.94     Clear
13:00 15.3 2.9 43 25 26 24.1 101.87     Clear
14:00 16.1 2.5 40 26 26 24.1 101.76     Clear
15:00 16.5 2.0 38 25 26 24.1 101.71     Clear
16:00 16.3 2.5 39 26 26 24.1 101.66     Clear
17:00 15.4 3.6 45 22 19 24.1 101.66     Clear
18:00 13.0 4.8 57 24 19 24.1 101.67     Clear
19:00 11.2 4.6 64 24 11 24.1 101.70     Clear
20:00 10.0 5.3 73 25 13 24.1 101.74     Clear
21:00 8.7 5.5 80 25 6 24.1 101.77     Clear
22:00 8.4 6.0 85 23 9 24.1 101.77     Clear
23:00 7.6 5.6 87 17 6 24.1 101.75     Clear

Notes on Data Quality.

Legend

  • E = Estimated
  • M = Missing
  • NA = Not Available
  • ‡ = Partner data that is not subject to review by the National Climate Archives
Date modified: